#timestamp,LO_Frequency,Hit 
1499000415.2,286046953.3,N
1499000435.0,286046953.6,N
1499000435.9,286046953.6,N
1499000455.8,286046953.4,N
1499000475.6,286046953.8,N
1499000495.4,286046953.6,N
1499000515.3,286046956.4,N
1499000535.1,286046955.6,N
1499000536.0,286046955.6,N
1499000555.8,286046956.1,N
1499000575.7,286046953.6,N
1499000595.5,286046951.7,N
1499000615.3,286046952.3,N
1499000635.1,286046950.4,N
1499000655.9,286046950.5,N
1499000675.7,286046950.4,N
1499000695.5,286046952.7,N
1499000715.4,286046951.0,N
1499000735.2,286046948.5,N
1499000755.0,286046951.6,N
1499000755.9,286046951.6,N
1499000775.8,286046949.3,N
1499000795.6,286046948.7,N
1499000815.4,286046949.8,N
1499000835.3,286046949.7,N
1499000855.1,286046947.8,N
1499000856.0,286046947.8,N
1499000875.8,286046945.4,Y
1499000895.7,286046987.4,N
1499000915.5,286046986.9,N
1499000935.3,286046987.4,N
1499000955.2,286046989.2,N
1499000975.9,286046987.4,N
1499000995.7,286046987.3,N
1499001015.6,286046988.3,N
1499001035.4,286046986.3,N
1499001055.2,286046984.6,N
1499001075.0,286046984.5,N
1499001076.0,286046984.5,N
1499001095.8,286046982.6,N
1499001115.6,286046984.7,N
1499001135.4,286046985.0,N
1499001155.3,286046984.8,N
1499001175.1,286046982.6,N
1499001195.8,286046983.1,N
1499001215.7,286046981.4,N
1499001235.5,286046980.8,N
1499001255.3,286046981.3,N
1499001275.2,286046979.7,N
1499001295.9,286046979.2,N
1499001315.7,286046979.7,N
1499001335.6,286046979.5,N
1499001355.4,286046980.1,N
1499001375.2,286046979.6,N
1499001395.1,286046980.4,N
1499001396.0,286046980.4,N
1499001415.8,286046977.4,N
1499001435.6,286046978.2,N
1499001455.5,286046978.7,N
1499001475.3,286046978.7,N
1499001495.1,286046977.7,N
1499001515.8,286046977.9,N
1499001535.7,286046978.4,N
1499001555.5,286046975.7,N
1499001575.3,286046974.5,N
1499001595.2,286046974.1,N
1499001615.9,286046975.3,N
1499001635.7,286046975.1,N
1499001655.6,286046975.2,N
1499001675.4,286046975.4,N
1499001695.2,286046972.9,N
1499001715.1,286046972.6,N
1499001716.0,286046972.6,N
1499001735.8,286046972.5,N
1499001755.6,286046972.5,N
1499001775.5,286046975.1,N
1499001795.3,286046974.4,N
1499001815.1,286046976.3,N
1499001835.8,286046974.8,N
1499001855.7,286046975.2,N
1499001875.5,286046973.7,N
1499001895.3,286046971.3,N
1499001915.2,286046971.6,N
1499001935.9,286046971.6,N
1499001955.7,286046971.7,N
1499001975.6,286046971.7,N
1499001995.4,286046969.6,N
1499002015.2,286046970.5,N
1499002035.1,286046968.3,N
1499002036.0,286046968.3,N
1499002055.8,286046968.6,N
1499002075.6,286046968.0,N
1499002095.5,286046969.1,N
1499002115.3,286046967.1,N
1499002135.1,286046964.9,N
1499002155.9,286046965.5,N
1499002175.7,286046965.6,N
1499002195.5,286046965.6,N
1499002215.4,286046965.8,N
1499002235.2,286046963.2,N
1499002255.0,286046963.2,N
1499002255.9,286046963.2,N
1499002275.8,286046963.6,N
1499002295.6,286046965.5,N
1499002315.4,286046965.6,N
1499002335.2,286046965.5,N
1499002355.1,286046965.6,N
1499002356.0,286046965.6,N
1499002375.8,286046963.0,N
1499002395.6,286046962.9,N
1499002415.5,286046965.9,N
1499002435.3,286046963.3,N
1499002455.1,286046962.9,N
1499002475.9,286046963.1,N
1499002495.7,286046965.4,N
1499002515.5,286046967.5,N
1499002535.4,286046963.3,N
1499002555.2,286046961.8,N
1499002575.0,286046964.0,N
1499002575.9,286046964.0,N
1499002595.8,286046964.4,N
1499002615.6,286046959.8,N
1499002635.4,286046960.4,N
1499002655.3,286046958.2,N
1499002675.1,286046960.8,N
1499002676.0,286046960.8,N
1499002695.8,286046959.5,N
1499002715.7,286046958.9,N
1499002735.5,286046959.2,N
1499002755.3,286046958.7,N
1499002775.1,286046959.0,N
1499002795.9,286046958.8,N
1499002815.7,286046959.0,N
1499002835.5,286046959.4,N
1499002855.4,286046959.0,N
1499002875.2,286046960.7,N
1499002895.0,286046958.5,N
1499002895.9,286046958.5,N
1499002915.8,286046956.9,N
1499002935.6,286046957.0,N
1499002955.4,286046954.9,Y
1499002975.3,286047000.1,N
1499002995.1,286047000.1,N
1499003015.8,286047000.5,N
1499003035.7,286046998.5,N
1499003055.5,286047001.1,N
1499003075.3,286047001.2,N
1499003095.2,286046998.5,N
1499003115.9,286047000.7,N
1499003135.7,286047000.9,N
1499003155.6,286046998.3,N
1499003175.4,286046999.5,N
1499003195.2,286046998.7,N
1499003215.0,286046998.9,N
1499003216.0,286046998.9,N
1499003235.8,286046996.6,N
1499003255.6,286046998.6,N
1499003275.4,286046998.6,N
1499003295.3,286046998.9,N
1499003315.1,286046998.2,N
1499003335.8,286046999.6,N
1499003355.7,286046997.7,N
1499003375.5,286046997.9,N
1499003395.3,286046995.0,N
1499003415.2,286046997.6,N
1499003435.9,286046995.1,N
1499003455.7,286046995.0,N
1499003475.6,286046997.5,N
1499003495.4,286046995.4,N
1499003515.2,286046996.4,N
1499003535.1,286046997.4,N
1499003536.0,286046997.4,N
1499003555.8,286046995.6,N
1499003575.6,286046995.1,N
1499003595.5,286046995.0,N
1499003615.3,286046997.6,N
1499003635.1,286046997.2,N
1499003655.8,286046993.7,N
1499003675.7,286046994.2,N
1499003695.5,286046993.3,N
1499003715.3,286046997.7,N
1499003735.2,286046995.6,N
1499003755.9,286046995.6,N
1499003775.7,286046996.3,N
1499003795.6,286046993.7,N
1499003815.4,286046994.1,N
1499003835.2,286046994.0,N
1499003855.1,286046993.9,N
1499003856.0,286046993.9,N
1499003875.8,286046993.6,N
1499003895.6,286046992.0,N
1499003915.4,286046994.7,N
1499003935.3,286046994.3,N
1499003955.1,286046994.3,N
1499003975.8,286046990.1,N
1499003995.7,286046990.6,N
